"Sample Date","Sample Time","Sample Value","Units","Flow Rate","Sample Interval","Number Channels","Micron Size 0","Counts/Channel 0","Micron Size 1","Counts/Channel 1","Micron Size 2","Counts/Channel 2","Micron Size 3","Counts/Channel 3","Micron Size 4","Counts/Channel 4","Micron Size 5","Counts/Channel 5","Micron Size 6","Counts/Channel 6","Micron Size 7","Counts/Channel 7","Micron Size 8","Counts/Channel 8","Micron Size 9","Counts/Channel 9","Micron Size 10","Counts/Channel 10","Micron Size 11","Counts/Channel 11","Micron Size 12","Counts/Channel 12","Micron Size 13","Counts/Channel 13","Micron Size 14","Counts/Channel 14","Micron Size 15","Counts/Channel 15","Micron Size 16","Counts/Channel 16","Micron Size 17","Counts/Channel 17","Micron Size 18","Counts/Channel 18","Micron Size 19","Counts/Channel 19","Micron Size 20","Counts/Channel 20","Micron Size 21","Counts/Channel 21","Micron Size 22","Counts/Channel 22","Micron Size 23","Counts/Channel 23","Micron Size 24","Counts/Channel 24","Micron Size 25","Counts/Channel 25","Micron Size 26","Counts/Channel 26","Micron Size 27","Counts/Channel 27","Micron Size 28","Counts/Channel 28","Micron Size 29","Counts/Channel 29","Micron Size 30","Counts/Channel 30","Micron Size 31","Counts/Channel 31"
"04/07/08","13:00:04",13457.000,"cc",28284.008,6.00,6,0.100,6501.000,0.200,2189.000,0.300,1807.000,0.500,2101.000,1.000,859.000,5.000,0
"04/07/08","13:00:10",13861.000,"cc",28263.613,6.00,6,0.100,6841.000,0.200,2213.000,0.300,1812.000,0.500,2187.000,1.000,807.000,5.000,1.000
"04/07/08","13:00:16",12924.000,"cc",28300.434,6.00,6,0.100,6351.000,0.200,2114.000,0.300,1751.000,0.500,1934.000,1.000,774.000,5.000,0
"04/07/08","13:00:22",12795.000,"cc",28163.852,6.00,6,0.100,6443.000,0.200,2068.000,0.300,1678.000,0.500,1803.000,1.000,803.000,5.000,0
"04/07/08","13:00:28",13034.000,"cc",28245.990,6.00,6,0.100,6582.000,0.200,2066.000,0.300,1666.000,0.500,1895.000,1.000,825.000,5.000,0
"04/07/08","13:00:34",14546.000,"cc",28488.121,6.00,6,0.100,7126.000,0.200,2362.000,0.300,1884.000,0.500,2260.000,1.000,914.000,5.000,0
"04/07/08","13:00:40",12811.000,"cc",28494.824,6.00,6,0.100,6259.000,0.200,2011.000,0.300,1713.000,0.500,2056.000,1.000,772.000,5.000,0
"04/07/08","13:00:46",12624.000,"cc",28287.191,6.00,6,0.100,6313.000,0.200,1984.000,0.300,1653.000,0.500,1916.000,1.000,758.000,5.000,0
"04/07/08","13:00:52",12150.000,"cc",28240.250,6.00,6,0.100,6133.000,0.200,1959.000,0.300,1562.000,0.500,1793.000,1.000,703.000,5.000,0
"04/07/08","13:00:58",12332.000,"cc",28306.324,6.00,6,0.100,6077.000,0.200,1896.000,0.300,1696.000,0.500,1892.000,1.000,771.000,5.000,0
"04/07/08","13:01:04",11875.000,"cc",28423.979,6.00,6,0.100,5954.000,0.200,1808.000,0.300,1533.000,0.500,1835.000,1.000,745.000,5.000,0
"04/07/08","13:01:10",12015.000,"cc",28158.412,6.00,6,0.100,6049.000,0.200,1838.000,0.300,1552.000,0.500,1837.000,1.000,739.000,5.000,0
"04/07/08","13:01:16",12404.000,"cc",28297.440,6.00,6,0.100,6141.000,0.200,1887.000,0.300,1637.000,0.500,1967.000,1.000,772.000,5.000,0
"04/07/08","13:01:22",12002.000,"cc",28424.363,6.00,6,0.100,5943.000,0.200,1890.000,0.300,1573.000,0.500,1847.000,1.000,749.000,5.000,0
"04/07/08","13:01:28",11331.000,"cc",28469.609,6.00,6,0.100,5677.000,0.200,1737.000,0.300,1479.000,0.500,1757.000,1.000,681.000,5.000,0
"04/07/08","13:01:34",12271.000,"cc",28148.082,6.00,6,0.100,6118.000,0.200,1915.000,0.300,1583.000,0.500,1895.000,1.000,760.000,5.000,0
"04/07/08","13:01:40",12409.000,"cc",28317.416,6.00,6,0.100,6189.000,0.200,1908.000,0.300,1632.000,0.500,1940.000,1.000,740.000,5.000,0
"04/07/08","13:01:46",12087.000,"cc",28361.197,6.00,6,0.100,6063.000,0.200,1844.000,0.300,1538.000,0.500,1902.000,1.000,740.000,5.000,0
"04/07/08","13:01:52",12032.000,"cc",28337.793,6.00,6,0.100,5981.000,0.200,1857.000,0.300,1549.000,0.500,1900.000,1.000,744.000,5.000,1.000
"04/07/08","13:01:58",12344.000,"cc",28284.092,6.00,6,0.100,6153.000,0.200,1949.000,0.300,1586.000,0.500,1882.000,1.000,774.000,5.000,0
"04/07/08","13:02:04",11833.000,"cc",28156.002,6.00,6,0.100,5980.000,0.200,1771.000,0.300,1534.000,0.500,1804.000,1.000,744.000,5.000,0
"04/07/08","13:02:10",11907.000,"cc",28336.949,6.00,6,0.100,5843.000,0.200,1914.000,0.300,1599.000,0.500,1824.000,1.000,727.000,5.000,0
"04/07/08","13:02:16",12451.000,"cc",28398.115,6.00,6,0.100,6045.000,0.200,2048.000,0.300,1644.000,0.500,1941.000,1.000,773.000,5.000,0
"04/07/08","13:02:22",11992.000,"cc",28360.289,6.00,6,0.100,5944.000,0.200,1897.000,0.300,1568.000,0.500,1849.000,1.000,734.000,5.000,0
"04/07/08","13:02:28",12061.000,"cc",28286.840,6.00,6,0.100,5970.000,0.200,1905.000,0.300,1610.000,0.500,1820.000,1.000,756.000,5.000,0
"04/07/08","13:02:34",12251.000,"cc",28315.496,6.00,6,0.100,6212.000,0.200,1818.000,0.300,1618.000,0.500,1831.000,1.000,772.000,5.000,0
"04/07/08","13:02:40",12488.000,"cc",28301.820,6.00,6,0.100,6059.000,0.200,2000.000,0.300,1675.000,0.500,1954.000,1.000,799.000,5.000,1.000
"04/07/08","13:02:46",11871.000,"cc",28364.832,6.00,6,0.100,5915.000,0.200,1859.000,0.300,1563.000,0.500,1791.000,1.000,743.000,5.000,0
"04/07/08","13:02:52",11744.000,"cc",28215.830,6.00,6,0.100,5919.000,0.200,1803.000,0.300,1545.000,0.500,1795.000,1.000,682.000,5.000,0
"04/07/08","13:02:58",11607.000,"cc",28237.695,6.00,6,0.100,5827.000,0.200,1798.000,0.300,1463.000,0.500,1746.000,1.000,772.000,5.000,1.000
"04/07/08","13:03:04",11936.000,"cc",28345.488,6.00,6,0.100,5874.000,0.200,1909.000,0.300,1545.000,0.500,1838.000,1.000,770.000,5.000,0
"04/07/08","13:03:10",12515.000,"cc",28284.320,6.00,6,0.100,6195.000,0.200,1909.000,0.300,1690.000,0.500,1908.000,1.000,813.000,5.000,0
"04/07/08","13:03:16",12518.000,"cc",28338.061,6.00,6,0.100,6176.000,0.200,2022.000,0.300,1643.000,0.500,1915.000,1.000,762.000,5.000,0
"04/07/08","13:03:22",12328.000,"cc",28250.897,6.00,6,0.100,6187.000,0.200,1917.000,0.300,1584.000,0.500,1850.000,1.000,790.000,5.000,0
"04/07/08","13:03:28",12047.000,"cc",28361.781,6.00,6,0.100,6191.000,0.200,1823.000,0.300,1554.000,0.500,1756.000,1.000,723.000,5.000,0
"04/07/08","13:03:34",11718.000,"cc",28332.152,6.00,6,0.100,5938.000,0.200,1796.000,0.300,1525.000,0.500,1718.000,1.000,741.000,5.000,0
"04/07/08","13:03:40",12100.000,"cc",28398.940,6.00,6,0.100,6030.000,0.200,1918.000,0.300,1534.000,0.500,1869.000,1.000,749.000,5.000,0
"04/07/08","13:03:46",12302.000,"cc",28176.285,6.00,6,0.100,6122.000,0.200,1905.000,0.300,1631.000,0.500,1876.000,1.000,768.000,5.000,0
"04/07/08","13:03:52",12773.000,"cc",28218.367,6.00,6,0.100,6276.000,0.200,2041.000,0.300,1663.000,0.500,1960.000,1.000,833.000,5.000,0
"04/07/08","13:03:58",15586.000,"cc",28193.883,6.00,6,0.100,7401.000,0.200,2545.000,0.300,2141.000,0.500,2443.000,1.000,1055.000,5.000,1.000
"04/07/08","13:04:04",13270.000,"cc",28281.963,6.00,6,0.100,6463.000,0.200,2152.000,0.300,1734.000,0.500,2095.000,1.000,826.000,5.000,0
"04/07/08","13:04:10",12973.000,"cc",28558.953,6.00,6,0.100,6315.000,0.200,2126.000,0.300,1671.000,0.500,1996.000,1.000,865.000,5.000,0
"04/07/08","13:04:16",13038.000,"cc",28378.436,6.00,6,0.100,6369.000,0.200,2111.000,0.300,1780.000,0.500,1955.000,1.000,823.000,5.000,0
"04/07/08","13:04:22",11986.000,"cc",28264.443,6.00,6,0.100,6051.000,0.200,1823.000,0.300,1528.000,0.500,1882.000,1.000,702.000,5.000,0
"04/07/08","13:04:28",12254.000,"cc",28267.469,6.00,6,0.100,6197.000,0.200,1892.000,0.300,1566.000,0.500,1838.000,1.000,761.000,5.000,0
"04/07/08","13:04:34",12739.000,"cc",28389.457,6.00,6,0.100,6199.000,0.200,2035.000,0.300,1710.000,0.500,1993.000,1.000,802.000,5.000,0
"04/07/08","13:04:40",12347.000,"cc",28130.453,6.00,6,0.100,6054.000,0.200,1924.000,0.300,1615.000,0.500,1945.000,1.000,809.000,5.000,0
"04/07/08","13:04:46",12167.000,"cc",28290.428,6.00,6,0.100,6155.000,0.200,1915.000,0.300,1556.000,0.500,1803.000,1.000,738.000,5.000,0
"04/07/08","13:04:52",12527.000,"cc",28377.486,6.00,6,0.100,6148.000,0.200,1965.000,0.300,1665.000,0.500,1965.000,1.000,784.000,5.000,0
"04/07/08","13:04:58",12786.000,"cc",28315.053,6.00,6,0.100,6349.000,0.200,2127.000,0.300,1681.000,0.500,1902.000,1.000,727.000,5.000,0
"04/07/08","13:05:04",12708.000,"cc",28228.787,6.00,6,0.100,6216.000,0.200,2035.000,0.300,1694.000,0.500,1969.000,1.000,794.000,5.000,0
"04/07/08","13:05:10",12798.000,"cc",28302.313,6.00,6,0.100,6258.000,0.200,2082.000,0.300,1726.000,0.500,1930.000,1.000,802.000,5.000,0
"04/07/08","13:05:16",13500.000,"cc",28316.316,6.00,6,0.100,6615.000,0.200,2241.000,0.300,1761.000,0.500,2065.000,1.000,818.000,5.000,0
"04/07/08","13:05:22",12870.000,"cc",28384.488,6.00,6,0.100,6458.000,0.200,1987.000,0.300,1644.000,0.500,1976.000,1.000,805.000,5.000,0
"04/07/08","13:05:28",12109.000,"cc",28388.299,6.00,6,0.100,6129.000,0.200,1865.000,0.300,1530.000,0.500,1870.000,1.000,715.000,5.000,0
"04/07/08","13:05:34",11896.000,"cc",28459.668,6.00,6,0.100,6018.000,0.200,1834.000,0.300,1528.000,0.500,1780.000,1.000,736.000,5.000,0
"04/07/08","13:05:40",12117.000,"cc",28233.393,6.00,6,0.100,5947.000,0.200,1914.000,0.300,1593.000,0.500,1915.000,1.000,747.000,5.000,1.000
"04/07/08","13:05:46",12589.000,"cc",28132.047,6.00,6,0.100,6290.000,0.200,1988.000,0.300,1657.000,0.500,1870.000,1.000,784.000,5.000,0
"04/07/08","13:05:52",12240.000,"cc",28303.242,6.00,6,0.100,6168.000,0.200,1892.000,0.300,1531.000,0.500,1893.000,1.000,756.000,5.000,0
"04/07/08","13:05:58",12562.000,"cc",28404.762,6.00,6,0.100,6191.000,0.200,2011.000,0.300,1671.000,0.500,1952.000,1.000,737.000,5.000,0
"04/07/08","13:06:04",12886.000,"cc",28369.877,6.00,6,0.100,6397.000,0.200,2039.000,0.300,1714.000,0.500,1952.000,1.000,784.000,5.000,0
"04/07/08","13:06:10",12199.000,"cc",28382.811,6.00,6,0.100,6095.000,0.200,1903.000,0.300,1525.000,0.500,1908.000,1.000,768.000,5.000,0
"04/07/08","13:06:16",12456.000,"cc",28299.379,6.00,6,0.100,6239.000,0.200,1891.000,0.300,1601.000,0.500,1952.000,1.000,773.000,5.000,0
"04/07/08","13:06:22",12807.000,"cc",28307.094,6.00,6,0.100,6258.000,0.200,2043.000,0.300,1715.000,0.500,1978.000,1.000,813.000,5.000,0
"04/07/08","13:06:28",12761.000,"cc",28210.828,6.00,6,0.100,6161.000,0.200,2075.000,0.300,1736.000,0.500,2015.000,1.000,773.000,5.000,1.000
"04/07/08","13:06:34",13297.000,"cc",28192.934,6.00,6,0.100,6607.000,0.200,2063.000,0.300,1722.000,0.500,2043.000,1.000,862.000,5.000,0
"04/07/08","13:06:40",12682.000,"cc",28424.633,6.00,6,0.100,6256.000,0.200,2032.000,0.300,1674.000,0.500,1952.000,1.000,768.000,5.000,0
"04/07/08","13:06:46",12428.000,"cc",28356.006,6.00,6,0.100,6199.000,0.200,1929.000,0.300,1664.000,0.500,1858.000,1.000,778.000,5.000,0
"04/07/08","13:06:52",12568.000,"cc",28391.963,6.00,6,0.100,6253.000,0.200,1900.000,0.300,1637.000,0.500,1979.000,1.000,799.000,5.000,0
"04/07/08","13:06:58",12179.000,"cc",28241.006,6.00,6,0.100,5984.000,0.200,1896.000,0.300,1612.000,0.500,1900.000,1.000,787.000,5.000,0
"04/07/08","13:07:04",12286.000,"cc",28277.344,6.00,6,0.100,6169.000,0.200,1888.000,0.300,1508.000,0.500,1883.000,1.000,838.000,5.000,0
"04/07/08","13:07:10",12546.000,"cc",28125.514,6.00,6,0.100,6032.000,0.200,2007.000,0.300,1684.000,0.500,2043.000,1.000,780.000,5.000,0
"04/07/08","13:07:16",13143.000,"cc",28392.397,6.00,6,0.100,6440.000,0.200,2050.000,0.300,1800.000,0.500,2023.000,1.000,830.000,5.000,0
"04/07/08","13:07:22",13707.000,"cc",28360.234,6.00,6,0.100,6588.000,0.200,2251.000,0.300,1884.000,0.500,2148.000,1.000,835.000,5.000,1.000
"04/07/08","13:07:28",14601.000,"cc",28316.397,6.00,6,0.100,7105.000,0.200,2455.000,0.300,1994.000,0.500,2190.000,1.000,857.000,5.000,0
"04/07/08","13:07:34",13452.000,"cc",28394.822,6.00,6,0.100,6606.000,0.200,2148.000,0.300,1835.000,0.500,2012.000,1.000,851.000,5.000,0
"04/07/08","13:07:40",14465.000,"cc",28340.131,6.00,6,0.100,6976.000,0.200,2365.000,0.300,1993.000,0.500,2202.000,1.000,928.000,5.000,1.000
"04/07/08","13:07:46",16841.000,"cc",28284.129,6.00,6,0.100,8179.000,0.200,2863.000,0.300,2297.000,0.500,2561.000,1.000,941.000,5.000,0
"04/07/08","13:07:52",16148.000,"cc",28391.039,6.00,6,0.100,7993.000,0.200,2777.000,0.300,2107.000,0.500,2326.000,1.000,945.000,5.000,0
"04/07/08","13:07:58",13057.000,"cc",28242.344,6.00,6,0.100,6429.000,0.200,2105.000,0.300,1742.000,0.500,2022.000,1.000,759.000,5.000,0
"04/07/08","13:08:04",13311.000,"cc",28335.815,6.00,6,0.100,6508.000,0.200,2111.000,0.300,1733.000,0.500,2154.000,1.000,805.000,5.000,0
"04/07/08","13:08:10",12573.000,"cc",28343.787,6.00,6,0.100,6151.000,0.200,2032.000,0.300,1645.000,0.500,1959.000,1.000,786.000,5.000,0
"04/07/08","13:08:16",13088.000,"cc",28323.346,6.00,6,0.100,6399.000,0.200,2136.000,0.300,1728.000,0.500,2004.000,1.000,821.000,5.000,0
"04/07/08","13:08:22",12948.000,"cc",28268.022,6.00,6,0.100,6264.000,0.200,2061.000,0.300,1703.000,0.500,2076.000,1.000,844.000,5.000,0
"04/07/08","13:08:28",13063.000,"cc",28359.643,6.00,6,0.100,6391.000,0.200,2145.000,0.300,1705.000,0.500,2028.000,1.000,794.000,5.000,0
"04/07/08","13:08:34",13480.000,"cc",28228.842,6.00,6,0.100,6567.000,0.200,2126.000,0.300,1864.000,0.500,2095.000,1.000,828.000,5.000,0
"04/07/08","13:08:40",13621.000,"cc",28282.147,6.00,6,0.100,6590.000,0.200,2244.000,0.300,1800.000,0.500,2151.000,1.000,836.000,5.000,0
"04/07/08","13:08:46",13881.000,"cc",28342.275,6.00,6,0.100,6715.000,0.200,2211.000,0.300,1890.000,0.500,2210.000,1.000,855.000,5.000,0
"04/07/08","13:08:52",13411.000,"cc",28351.967,6.00,6,0.100,6541.000,0.200,2128.000,0.300,1884.000,0.500,2032.000,1.000,826.000,5.000,0
"04/07/08","13:08:58",12691.000,"cc",28333.680,6.00,6,0.100,6217.000,0.200,2045.000,0.300,1728.000,0.500,1911.000,1.000,790.000,5.000,0
"04/07/08","13:09:04",13225.000,"cc",28378.701,6.00,6,0.100,6360.000,0.200,2097.000,0.300,1789.000,0.500,2146.000,1.000,832.000,5.000,1.000
"04/07/08","13:09:10",12701.000,"cc",28396.941,6.00,6,0.100,6325.000,0.200,1993.000,0.300,1687.000,0.500,1930.000,1.000,766.000,5.000,0
"04/07/08","13:09:16",12621.000,"cc",28378.416,6.00,6,0.100,6283.000,0.200,1930.000,0.300,1700.000,0.500,1907.000,1.000,801.000,5.000,0
"04/07/08","13:09:22",12912.000,"cc",28233.363,6.00,6,0.100,6335.000,0.200,2051.000,0.300,1712.000,0.500,1989.000,1.000,825.000,5.000,0
"04/07/08","13:09:28",12093.000,"cc",28170.313,6.00,6,0.100,6069.000,0.200,1927.000,0.300,1508.000,0.500,1851.000,1.000,738.000,5.000,0
"04/07/08","13:09:34",12192.000,"cc",28198.545,6.00,6,0.100,6001.000,0.200,1911.000,0.300,1599.000,0.500,1857.000,1.000,824.000,5.000,0
"04/07/08","13:09:40",12069.000,"cc",28371.998,6.00,6,0.100,6026.000,0.200,1894.000,0.300,1546.000,0.500,1858.000,1.000,745.000,5.000,0
"04/07/08","13:09:46",11957.000,"cc",28314.190,6.00,6,0.100,5937.000,0.200,1902.000,0.300,1564.000,0.500,1816.000,1.000,738.000,5.000,0
"04/07/08","13:09:52",11937.000,"cc",28407.965,6.00,6,0.100,5915.000,0.200,1888.000,0.300,1542.000,0.500,1831.000,1.000,760.000,5.000,1.000
"04/07/08","13:09:58",11979.000,"cc",28162.549,6.00,6,0.100,6017.000,0.200,1910.000,0.300,1497.000,0.500,1867.000,1.000,688.000,5.000,0
"04/07/08","13:10:04",12299.000,"cc",28360.375,6.00,6,0.100,6050.000,0.200,2020.000,0.300,1605.000,0.500,1920.000,1.000,704.000,5.000,0
"04/07/08","13:10:10",12975.000,"cc",28412.264,6.00,6,0.100,6390.000,0.200,2022.000,0.300,1732.000,0.500,2021.000,1.000,810.000,5.000,0
"04/07/08","13:10:16",12336.000,"cc",28343.578,6.00,6,0.100,6118.000,0.200,1895.000,0.300,1642.000,0.500,1866.000,1.000,815.000,5.000,0
"04/07/08","13:10:22",12740.000,"cc",28436.002,6.00,6,0.100,6310.000,0.200,2028.000,0.300,1623.000,0.500,1946.000,1.000,832.000,5.000,1.000
"04/07/08","13:10:28",12475.000,"cc",28264.158,6.00,6,0.100,6110.000,0.200,2025.000,0.300,1650.000,0.500,1902.000,1.000,788.000,5.000,0
"04/07/08","13:10:34",12850.000,"cc",28369.365,6.00,6,0.100,6333.000,0.200,2048.000,0.300,1716.000,0.500,1921.000,1.000,832.000,5.000,0
"04/07/08","13:10:40",12806.000,"cc",28246.541,6.00,6,0.100,6316.000,0.200,2033.000,0.300,1729.000,0.500,1940.000,1.000,788.000,5.000,0
"04/07/08","13:10:46",12678.000,"cc",28123.016,6.00,6,0.100,6174.000,0.200,2098.000,0.300,1642.000,0.500,1970.000,1.000,794.000,5.000,0
"04/07/08","13:10:52",13433.000,"cc",28374.717,6.00,6,0.100,6582.000,0.200,2186.000,0.300,1726.000,0.500,2098.000,1.000,841.000,5.000,0
"04/07/08","13:10:58",13304.000,"cc",28475.209,6.00,6,0.100,6632.000,0.200,2144.000,0.300,1753.000,0.500,1964.000,1.000,811.000,5.000,0
"04/07/08","13:11:04",12853.000,"cc",28461.920,6.00,6,0.100,6342.000,0.200,2106.000,0.300,1667.000,0.500,1953.000,1.000,785.000,5.000,0
"04/07/08","13:11:10",13387.000,"cc",28090.475,6.00,6,0.100,6537.000,0.200,2173.000,0.300,1795.000,0.500,2045.000,1.000,837.000,5.000,0
"04/07/08","13:11:16",13322.000,"cc",28140.311,6.00,6,0.100,6461.000,0.200,2137.000,0.300,1857.000,0.500,2049.000,1.000,818.000,5.000,0
"04/07/08","13:11:22",14929.000,"cc",28174.090,6.00,6,0.100,7152.000,0.200,2502.000,0.300,2020.000,0.500,2341.000,1.000,914.000,5.000,0
"04/07/08","13:11:28",13584.000,"cc",28346.391,6.00,6,0.100,6585.000,0.200,2212.000,0.300,1820.000,0.500,2119.000,1.000,848.000,5.000,0
"04/07/08","13:11:34",13443.000,"cc",28494.225,6.00,6,0.100,6512.000,0.200,2154.000,0.300,1826.000,0.500,2086.000,1.000,865.000,5.000,0
"04/07/08","13:11:40",13109.000,"cc",28227.713,6.00,6,0.100,6495.000,0.200,2105.000,0.300,1753.000,0.500,1983.000,1.000,773.000,5.000,0
"04/07/08","13:11:46",13496.000,"cc",28326.375,6.00,6,0.100,6615.000,0.200,2180.000,0.300,1821.000,0.500,2102.000,1.000,778.000,5.000,0
"04/07/08","13:11:52",14999.000,"cc",28408.158,6.00,6,0.100,7223.000,0.200,2554.000,0.300,2025.000,0.500,2316.000,1.000,881.000,5.000,0
"04/07/08","13:11:58",14811.000,"cc",28324.676,6.00,6,0.100,7145.000,0.200,2399.000,0.300,1996.000,0.500,2314.000,1.000,957.000,5.000,0
"04/07/08","13:12:04",12710.000,"cc",28330.424,6.00,6,0.100,6348.000,0.200,2066.000,0.300,1614.000,0.500,1895.000,1.000,787.000,5.000,0
"04/07/08","13:12:10",12633.000,"cc",28305.690,6.00,6,0.100,6294.000,0.200,1960.000,0.300,1685.000,0.500,1915.000,1.000,779.000,5.000,0
"04/07/08","13:12:16",12768.000,"cc",28232.840,6.00,6,0.100,6296.000,0.200,2030.000,0.300,1669.000,0.500,1984.000,1.000,789.000,5.000,0
"04/07/08","13:12:22",12736.000,"cc",28295.443,6.00,6,0.100,6240.000,0.200,1994.000,0.300,1769.000,0.500,1948.000,1.000,785.000,5.000,0
"04/07/08","13:12:28",13026.000,"cc",28345.162,6.00,6,0.100,6449.000,0.200,2082.000,0.300,1695.000,0.500,2042.000,1.000,757.000,5.000,1.000
"04/07/08","13:12:34",13968.000,"cc",28386.326,6.00,6,0.100,6895.000,0.200,2221.000,0.300,1862.000,0.500,2116.000,1.000,874.000,5.000,0
"04/07/08","13:12:40",14118.000,"cc",28369.315,6.00,6,0.100,6887.000,0.200,2316.000,0.300,1861.000,0.500,2221.000,1.000,833.000,5.000,0
"04/07/08","13:12:46",11991.000,"cc",28503.076,6.00,6,0.100,6023.000,0.200,1857.000,0.300,1529.000,0.500,1871.000,1.000,710.000,5.000,1.000
"04/07/08","13:12:52",11932.000,"cc",28315.195,6.00,6,0.100,6101.000,0.200,1845.000,0.300,1499.000,0.500,1791.000,1.000,696.000,5.000,0
"04/07/08","13:12:58",12429.000,"cc",28209.420,6.00,6,0.100,6180.000,0.200,2052.000,0.300,1557.000,0.500,1860.000,1.000,780.000,5.000,0
"04/07/08","13:13:04",12284.000,"cc",28341.752,6.00,6,0.100,6253.000,0.200,1946.000,0.300,1444.000,0.500,1876.000,1.000,765.000,5.000,0
"04/07/08","13:13:10",12124.000,"cc",28294.664,6.00,6,0.100,6169.000,0.200,1890.000,0.300,1596.000,0.500,1724.000,1.000,745.000,5.000,0
"04/07/08","13:13:16",11878.000,"cc",28371.609,6.00,6,0.100,5833.000,0.200,1915.000,0.300,1564.000,0.500,1774.000,1.000,792.000,5.000,0
"04/07/08","13:13:22",12197.000,"cc",28269.389,6.00,6,0.100,6116.000,0.200,1872.000,0.300,1640.000,0.500,1792.000,1.000,776.000,5.000,1.000
"04/07/08","13:13:28",11765.000,"cc",28288.285,6.00,6,0.100,6052.000,0.200,1757.000,0.300,1534.000,0.500,1774.000,1.000,648.000,5.000,0
"04/07/08","13:13:34",12374.000,"cc",28274.906,6.00,6,0.100,6223.000,0.200,1928.000,0.300,1589.000,0.500,1898.000,1.000,736.000,5.000,0
"04/07/08","13:13:40",12962.000,"cc",28247.848,6.00,6,0.100,6385.000,0.200,2013.000,0.300,1754.000,0.500,2018.000,1.000,792.000,5.000,0
"04/07/08","13:13:46",12152.000,"cc",28389.391,6.00,6,0.100,5990.000,0.200,1890.000,0.300,1665.000,0.500,1866.000,1.000,741.000,5.000,0
"04/07/08","13:13:52",11914.000,"cc",28226.010,6.00,6,0.100,5954.000,0.200,1840.000,0.300,1546.000,0.500,1840.000,1.000,734.000,5.000,0
"04/07/08","13:13:58",12090.000,"cc",28403.516,6.00,6,0.100,6006.000,0.200,1895.000,0.300,1647.000,0.500,1831.000,1.000,711.000,5.000,0
"04/07/08","13:14:04",12456.000,"cc",28324.066,6.00,6,0.100,6142.000,0.200,1952.000,0.300,1633.000,0.500,1926.000,1.000,803.000,5.000,0
"04/07/08","13:14:10",12615.000,"cc",28333.727,6.00,6,0.100,6163.000,0.200,2008.000,0.300,1714.000,0.500,1959.000,1.000,771.000,5.000,0
"04/07/08","13:14:16",12546.000,"cc",28075.080,6.00,6,0.100,6112.000,0.200,2038.000,0.300,1691.000,0.500,1895.000,1.000,810.000,5.000,0
"04/07/08","13:14:22",13271.000,"cc",28300.424,6.00,6,0.100,6566.000,0.200,2116.000,0.300,1776.000,0.500,2026.000,1.000,787.000,5.000,0
"04/07/08","13:14:28",13294.000,"cc",28200.906,6.00,6,0.100,6580.000,0.200,2094.000,0.300,1822.000,0.500,2049.000,1.000,749.000,5.000,0
"04/07/08","13:14:34",12773.000,"cc",28290.164,6.00,6,0.100,6243.000,0.200,2025.000,0.300,1748.000,0.500,1999.000,1.000,758.000,5.000,0
"04/07/08","13:14:40",13116.000,"cc",28353.272,6.00,6,0.100,6439.000,0.200,2076.000,0.300,1772.000,0.500,1971.000,1.000,858.000,5.000,0
"04/07/08","13:14:46",13613.000,"cc",28415.824,6.00,6,0.100,6622.000,0.200,2205.000,0.300,1830.000,0.500,2077.000,1.000,879.000,5.000,0
"04/07/08","13:14:52",13758.000,"cc",28322.762,6.00,6,0.100,6589.000,0.200,2214.000,0.300,1885.000,0.500,2214.000,1.000,856.000,5.000,0
"04/07/08","13:14:58",13426.000,"cc",28359.891,6.00,6,0.100,6521.000,0.200,2216.000,0.300,1749.000,0.500,2121.000,1.000,819.000,5.000,0
"04/07/08","13:15:04",12787.000,"cc",28337.518,6.00,6,0.100,6183.000,0.200,2117.000,0.300,1695.000,0.500,1976.000,1.000,816.000,5.000,0
"04/07/08","13:15:10",12631.000,"cc",28257.273,6.00,6,0.100,6203.000,0.200,2022.000,0.300,1698.000,0.500,1941.000,1.000,767.000,5.000,0
"04/07/08","13:15:16",12376.000,"cc",28433.824,6.00,6,0.100,6074.000,0.200,1937.000,0.300,1605.000,0.500,1953.000,1.000,807.000,5.000,0
"04/07/08","13:15:22",12231.000,"cc",28314.166,6.00,6,0.100,6143.000,0.200,1887.000,0.300,1569.000,0.500,1899.000,1.000,733.000,5.000,0
"04/07/08","13:15:28",12527.000,"cc",28224.258,6.00,6,0.100,6152.000,0.200,2026.000,0.300,1644.000,0.500,1962.000,1.000,743.000,5.000,0
"04/07/08","13:15:34",13138.000,"cc",28373.316,6.00,6,0.100,6377.000,0.200,2121.000,0.300,1731.000,0.500,2110.000,1.000,799.000,5.000,0
"04/07/08","13:15:40",13075.000,"cc",28223.943,6.00,6,0.100,6461.000,0.200,2090.000,0.300,1671.000,0.500,2073.000,1.000,780.000,5.000,0
"04/07/08","13:15:46",12636.000,"cc",28335.147,6.00,6,0.100,6230.000,0.200,2024.000,0.300,1642.000,0.500,1947.000,1.000,793.000,5.000,0
"04/07/08","13:15:52",12834.000,"cc",28305.551,6.00,6,0.100,6373.000,0.200,2005.000,0.300,1737.000,0.500,1943.000,1.000,776.000,5.000,0
"04/07/08","13:15:58",12507.000,"cc",28433.344,6.00,6,0.100,6200.000,0.200,1972.000,0.300,1640.000,0.500,1922.000,1.000,773.000,5.000,0
"04/07/08","13:16:04",12280.000,"cc",28269.756,6.00,6,0.100,5989.000,0.200,1962.000,0.300,1586.000,0.500,1939.000,1.000,804.000,5.000,0
"04/07/08","13:16:10",12707.000,"cc",28194.145,6.00,6,0.100,6178.000,0.200,2055.000,0.300,1714.000,0.500,1956.000,1.000,804.000,5.000,0
"04/07/08","13:16:16",13344.000,"cc",28354.150,6.00,6,0.100,6623.000,0.200,2178.000,0.300,1779.000,0.500,2028.000,1.000,736.000,5.000,0
"04/07/08","13:16:22",13807.000,"cc",28345.924,6.00,6,0.100,6686.000,0.200,2221.000,0.300,1852.000,0.500,2171.000,1.000,877.000,5.000,0
"04/07/08","13:16:28",13783.000,"cc",28409.326,6.00,6,0.100,6803.000,0.200,2254.000,0.300,1860.000,0.500,2026.000,1.000,840.000,5.000,0